EDT,Max TemperatureF,Mean TemperatureF,Min TemperatureF,Max Dew PointF,MeanDew PointF,Min DewpointF,Max Humidity, Mean Humidity, Min Humidity, Max Sea Level PressureIn, Mean Sea Level PressureIn, Min Sea Level PressureIn, Max VisibilityMiles, Mean VisibilityMiles, Min VisibilityMiles, Max Wind SpeedMPH, Mean Wind SpeedMPH, Max Gust SpeedMPH,PrecipitationIn, CloudCover, Events, WindDirDegrees
2012-4-1,68,58,48,48,45,43,86,66,45,29.91,29.80,29.56,10,8,2,13,5,20,0.00,5,,184
2012-4-2,68,55,42,52,38,26,80,51,22,29.96,29.79,29.54,10,10,10,14,5,23,T,2,,35
2012-4-3,76,55,34,46,37,31,89,58,27,30.05,29.92,29.78,10,10,10,12,3,13,0.00,0,,190
2012-4-4,82,67,52,56,50,42,77,56,35,29.78,29.67,29.56,10,10,10,12,4,20,T,2,,278
2012-4-5,63,52,40,38,32,26,82,57,32,29.89,29.83,29.70,10,10,10,14,4,14,0.00,0,,87
2012-4-6,64,49,34,38,25,19,92,56,19,30.10,30.00,29.89,10,10,7,14,6,25,0.00,0,,33
2012-4-7,69,54,38,23,17,10,41,28,14,30.24,30.15,30.07,10,10,10,10,3,18,0.00,0,,336
2012-4-8,75,57,38,32,27,21,59,38,17,30.11,29.98,29.83,10,10,10,14,5,24,0.00,0,,266
2012-4-9,71,59,47,35,26,17,50,34,18,29.97,29.87,29.75,10,10,10,18,8,30,0.00,2,,293
2012-4-10,70,56,41,37,22,6,76,43,9,29.87,29.78,29.68,10,10,10,21,9,37,0.00,0,,293
2012-4-11,53,45,37,28,24,21,59,45,30,30.10,29.98,29.89,10,10,10,14,6,26,T,5,,334
2012-4-12,62,50,38,32,28,25,70,48,25,30.19,30.14,30.08,10,10,10,14,6,21,0.00,0,,341
2012-4-13,67,53,39,36,31,27,85,54,22,30.27,30.22,30.19,10,10,10,9,2,26,0.00,3,,176
2012-4-14,77,57,36,44,37,33,85,54,23,30.26,30.17,30.07,10,10,10,16,6,24,0.00,1,,208
2012-4-15,85,71,57,57,49,44,66,49,31,30.10,30.05,30.00,10,10,10,18,9,25,0.00,0,,198
2012-4-16,87,74,61,61,58,56,90,64,37,30.08,30.00,29.94,10,10,7,18,10,28,0.00,0,,194
2012-4-17,77,68,59,58,44,30,73,47,20,30.22,30.15,30.01,10,10,10,12,4,21,0.00,3,,4
2012-4-18,59,55,50,49,46,36,93,67,40,30.28,30.20,30.14,10,7,2,12,1,12,0.47,8,Rain,30
2012-4-19,70,59,48,50,48,46,93,71,48,30.14,30.09,30.02,10,6,2,9,2,10,0.00,5,,59
2012-4-20,72,57,42,53,47,41,100,75,49,30.02,29.95,29.83,10,5,0,13,4,29,0.00,3,Fog,173
2012-4-21,80,67,53,60,55,51,93,66,39,29.82,29.74,29.63,10,9,2,18,5,26,0.25,5,Rain,212
2012-4-22,56,51,46,52,47,39,89,86,82,29.76,29.65,29.47,10,9,4,13,5,21,0.37,8,Rain,9
2012-4-23,47,45,42,40,38,29,89,69,49,29.58,29.47,29.38,10,9,5,12,5,22,0.13,7,Rain,230
2012-4-24,63,49,34,34,26,16,92,56,19,29.74,29.62,29.56,10,10,10,14,5,21,0.00,1,,249
2012-4-25,73,57,40,43,35,28,76,48,20,29.88,29.83,29.75,10,10,10,14,6,23,T,1,,238
2012-4-26,73,65,57,59,55,45,86,69,51,29.85,29.72,29.62,10,8,2,15,7,20,0.00,5,Rain,222
2012-4-27,73,61,49,49,34,26,51,35,19,30.17,29.99,29.75,10,10,10,17,6,24,0.00,1,,356
2012-4-28,56,50,44,42,37,30,80,61,41,30.30,30.20,30.13,10,10,10,12,3,15,0.09,6,Rain,151
2012-4-29,74,61,48,50,45,42,86,61,35,30.26,30.19,30.12,10,9,6,9,2,14,0.05,4,Rain,76
2012-4-30,62,58,54,54,47,36,83,65,47,30.29,30.21,30.11,10,8,4,12,2,16,T,8,Rain,53